TimePST,TemperatureF,Dew PointF,Humidity,Sea Level PressureIn,VisibilityMPH,Wind Direction,Wind SpeedMPH,Gust SpeedMPH,PrecipitationIn,Events,Conditions,WindDirDegrees,DateUTC
12:53 AM,30.0,27.0,88,30.01,10.0,SE,5.8,-,N/A,,Clear,140,2012-11-18 08:53:00
1:53 AM,28.9,27.0,92,30.02,10.0,North,6.9,-,N/A,,Clear,360,2012-11-18 09:53:00
2:53 AM,28.9,27.0,92,30.03,10.0,NE,3.5,-,N/A,,Clear,50,2012-11-18 10:53:00
3:53 AM,28.9,27.0,92,30.06,10.0,Calm,Calm,-,N/A,,Clear,0,2012-11-18 11:53:00
4:53 AM,28.9,26.1,89,30.07,10.0,Calm,Calm,-,N/A,,Clear,0,2012-11-18 12:53:00
5:53 AM,30.0,28.0,92,30.07,10.0,Calm,Calm,-,N/A,,Mostly Cloudy,0,2012-11-18 13:53:00
6:53 AM,30.0,28.9,96,30.07,10.0,Calm,Calm,-,N/A,,Overcast,0,2012-11-18 14:53:00
7:03 AM,30.2,28.4,93,29.99,10.0,North,3.5,-,N/A,,Overcast,10,2012-11-18 15:03:00
7:23 AM,30.2,28.4,93,29.99,10.0,NNE,3.5,-,N/A,,Overcast,20,2012-11-18 15:23:00
7:32 AM,30.2,28.4,93,30.00,10.0,NE,4.6,-,N/A,,Overcast,50,2012-11-18 15:32:00
7:40 AM,30.2,28.4,93,30.00,1.8,Calm,Calm,-,N/A,,Overcast,0,2012-11-18 15:40:00
7:49 AM,30.2,28.4,93,30.00,1.2,Calm,Calm,-,N/A,,Overcast,0,2012-11-18 15:49:00
7:53 AM,30.0,30.0,100,30.07,1.8,Calm,Calm,-,N/A,,Mostly Cloudy,0,2012-11-18 15:53:00
7:56 AM,30.2,28.4,93,30.00,3.0,Calm,Calm,-,N/A,,Mostly Cloudy,0,2012-11-18 15:56:00
8:17 AM,30.2,30.2,100,30.00,2.5,North,5.8,-,N/A,,Scattered Clouds,350,2012-11-18 16:17:00
8:19 AM,30.2,28.4,93,30.00,1.0,North,6.9,-,N/A,,Mist,350,2012-11-18 16:19:00
8:24 AM,30.2,28.4,93,30.00,0.2,North,4.6,-,N/A,Fog,Light Freezing Fog,360,2012-11-18 16:24:00
8:53 AM,32.0,32.0,100,30.08,0.2,Calm,Calm,-,N/A,Fog,Fog,0,2012-11-18 16:53:00
9:01 AM,33.8,33.8,100,30.00,0.8,Calm,Calm,-,N/A,,Mist,0,2012-11-18 17:01:00
9:13 AM,33.8,32.0,93,30.00,1.2,Calm,Calm,-,N/A,,Overcast,0,2012-11-18 17:13:00
9:29 AM,33.8,33.8,100,30.00,3.0,NNE,3.5,-,N/A,,Overcast,20,2012-11-18 17:29:00
9:53 AM,36.0,34.0,93,30.08,10.0,NE,3.5,-,N/A,,Mostly Cloudy,50,2012-11-18 17:53:00
10:03 AM,35.6,33.8,93,30.01,10.0,NNE,3.5,-,N/A,,Scattered Clouds,20,2012-11-18 18:03:00
10:53 AM,36.0,34.0,93,30.09,10.0,North,3.5,-,N/A,,Partly Cloudy,10,2012-11-18 18:53:00
11:53 AM,39.0,35.1,86,30.07,10.0,NE,4.6,-,N/A,,Overcast,40,2012-11-18 19:53:00
12:53 PM,39.9,34.0,79,30.06,10.0,Calm,Calm,-,N/A,,Mostly Cloudy,0,2012-11-18 20:53:00
1:53 PM,43.0,36.0,76,30.04,10.0,South,8.1,-,N/A,,Scattered Clouds,180,2012-11-18 21:53:00
2:53 PM,46.9,32.0,56,30.02,10.0,South,20.7,26.5,N/A,,Clear,170,2012-11-18 22:53:00
3:53 PM,45.0,32.0,60,30.02,10.0,South,20.7,26.5,N/A,,Clear,180,2012-11-18 23:53:00
4:53 PM,44.1,30.0,58,30.03,10.0,South,26.5,32.2,N/A,,Overcast,170,2012-11-19 00:53:00
5:53 PM,44.1,30.9,60,30.03,10.0,South,21.9,27.6,N/A,,Overcast,170,2012-11-19 01:53:00
6:53 PM,44.1,30.9,60,30.05,10.0,South,19.6,29.9,N/A,,Overcast,180,2012-11-19 02:53:00
7:53 PM,45.0,30.9,58,30.04,10.0,South,21.9,29.9,N/A,,Overcast,180,2012-11-19 03:53:00
9:53 PM,45.0,32.0,60,30.06,10.0,South,21.9,29.9,N/A,,Overcast,180,2012-11-19 05:53:00
10:53 PM,45.0,32.0,60,30.05,10.0,South,23.0,31.1,N/A,,Mostly Cloudy,180,2012-11-19 06:53:00
11:53 PM,45.0,32.0,60,30.05,10.0,South,24.2,34.5,N/A,,Clear,180,2012-11-19 07:53:00